COSMOS 252 DEB *

Satellite information

Favourite Embed

Satellite Type and Status

DEBRISIN ORBIT

Key statistics

Satellite COSMOS 252 DEB * at a glance.

Uptime

20760

Days in orbit

Revolutions

≈ 12.6

Per day

Orbit

MEO

Medium Earth Orbit

Inclination

63.0

Latest

Satellite identification and parameters

Extended collection of information and parameters for COSMOS 252 DEB *.

Object identification

Identified? True

Debris? True

Object name: COSMOS 252 DEB *

International designator: 1968-097BS

Object number (NORAD): 3938

Object ID (CCSDS): 3938

Country: COMMONWEALTH OF INDEPENDENT STATES (CIS)

Current information (Y/N): Y

RCS size: SMALL

Orbital parameters

Period: 114.675 minutes

Inclination: 63.0347 deg

SMA: 7818.766 km

Apoapsis: 2265.221 km

Periapsis: 616.041 km

RAAN: 81.7286 deg

Eccentricy: 0.10546293

Argument of periapsis: 297.9278 deg

Mean anomaly: 120.1885 deg

Mean motion: 12.55727538 rev/day

Mean motion (dot): 0.00000522 rev/day2

B* drag term: 0.00040853791 1/REarth

Two-line elements (TLE)

Creation date: Sept. 3, 2025, 2:21 a.m.

Reference frame: TEME

Reference center: EARTH

Epoch: Sept. 2, 2025, 3:20 p.m. UTC

TLE line 0: 0 COSMOS 252 DEB *

TLE line 1: 1 03938U 68097BS 25245.63895701 .00000522 00000-0 40854-3 0 9993

TLE line 2: 2 03938 63.0347 81.7286 1054629 297.9278 120.1885 12.55727538534812

Live tracking on map

Real-time ground track for satellite COSMOS 252 DEB *.

In-orbit conjunctions

A list of the most updated potential collisions computed for object COSMOS 252 DEB *.

Target Orbit TCA Probability of collision Miss distance Type
TIROS 9 MEO 2025-09-02 02:02:57 0.002620939 87.0 (m) PAYLOAD

Associated space launch

The I2P satellites were the first soviet coorbital ASAT system.

COSMOS 252 DEB * was lifted into orbit during the mission ‘Tsiklon-2A | I2P 2’, on board a Tsiklon-2A space rocket.

The launch took place on Nov. 1, 1968, 12:27 a.m. from 90/20.

For more information about the launch, click the button.

Launch to space Tsiklon-2A | I2P 2
Tsiklon-2A | I2P 2

Agency: N/A

Status: Launch Successful

Launch date: Nov. 1, 1968, 12:27 a.m. UTC

Rocket: Tsiklon-2A

Launch pad: 90/20

Location: Baikonur Cosmodrome, Republic of Kazakhstan

...

Latest news about this satellite

There are no fresh news available about this satellite. Check back as we update our databases every day.


Newsletter sign-up

Weekly statistics, charts and insights to help you stay on top of the space industry.